Back to catalog

NOAA 17 DEB

AlivePO
NORAD 48717·DEBRIS·🇺🇸 United States

Launched Jun 24, 2002 from Vandenberg Space Force Base

Loading…

Next Passes (next 24 hours)

TLE

FreshSource: Space-Track

Epoch: Sep 13, 2026, 23:15 UTC

1 48717U 02032BA  26256.96908367  .00005389  00000-0  11995-2 0  9995
2 48717  98.7740 256.5979 0006878 358.7323   1.3855 14.57358535288171

Track NOAA 17 DEB in real time with AllMySat

Download on the App Store